Weather History for Syracuse, NY

Change the Weather History Date:

Sunday, November 16, 2014

  Actual Average Record
Temperature  
Mean Temperature 37 °F 41 °F  
Max Temperature 41 °F 48 °F 71 °F (1990)
Min Temperature 32 °F 33 °F 6 °F (1933)
Degree Days  
Heating Degree Days 28 24  
Month to date heating degree days 339 350  
Since 1 July heating degree days 772 967  
Cooling Degree Days 0 0  
Month to date cooling degree days 0 0  
Year to date cooling degree days 647 569  
Moisture  
Dew Point 23 °F    
Average Humidity 59    
Maximum Humidity 69    
Minimum Humidity 48    
Precipitation  
Precipitation T in 0.12 in 1.75 in (1926)
Month to date precipitation 0.90 1.87  
Year to date precipitation 36.08 33.59  
Snow  
Snow T in 0.20 in 3.30 in (1997)
Month to date snowfall 2.7 3.0  
Since 1 July snowfall 2.7 3.4  
Since 1 September snowfall 2.7 3.4  
Snow Depth 0.00 in    
Sea Level Pressure  
Sea Level Pressure 30.16 in    
Wind  
Wind Speed 9 mph (South)    
Max Wind Speed 17 mph    
Max Gust Speed 22 mph    
Visibility 10 miles    
Events Snow    
T = Trace of Precipitation, MM = Missing Value Source: NWS Daily Summary

Daily Weather History Graph

Daily Weather History Graph

Search for Another Location

Airport:

Trip Planner

Search our weather history database for the weather conditions in past years. The results will help you decide how hot, cold, wet, or windy it might be!

Date:

Astronomy

Nov. 16, 2014 Rise Set
Actual Time 6:58 AM EST 4:39 PM EST
Civil Twilight 6:27 AM EST 5:10 PM EST
Nautical Twilight 5:53 AM EST 5:44 PM EST
Astronomical Twilight 5:19 AM EST 6:18 PM EST
Moon 12:53 AM EST (11/16) 1:40 PM EST (11/16)
Length of Visible Light 10h 42m
Length of Day
9h 41m
Waning Crescent, 31% of the Moon is Illuminated
Nov 16
Waning Crescent
Nov 22
New
Nov 29
First Quarter
Dec 6
Full
Dec 14
Last Quarter

Hourly Weather History & Observations

Time (EST) Temp. Windchill Dew Point Humidity Pressure Visibility Wind Dir Wind Speed Gust Speed Precip Events Conditions
12:54 AM 35.1 °F 29.3 °F 24.1 °F 64% 30.28 in 10.0 mi SSW 6.9 mph - N/A   Overcast
1:54 AM 33.1 °F 26.9 °F 21.9 °F 64% 30.27 in 10.0 mi SSW 6.9 mph - N/A   Mostly Cloudy
2:54 AM 32.0 °F 26.4 °F 21.9 °F 66% 30.27 in 10.0 mi South 5.8 mph - N/A   Scattered Clouds
3:54 AM 34.0 °F 28.8 °F 21.0 °F 59% 30.26 in 10.0 mi South 5.8 mph - N/A   Overcast
4:54 AM 34.0 °F 26.0 °F 19.9 °F 56% 30.26 in 10.0 mi South 10.4 mph - N/A   Mostly Cloudy
5:54 AM 34.0 °F 28.0 °F 21.0 °F 59% 30.24 in 10.0 mi SE 6.9 mph - N/A   Overcast
6:54 AM 35.1 °F 26.4 °F 21.0 °F 57% 30.23 in 9.0 mi SSW 12.7 mph - 0.00 in Snow Light Snow
7:54 AM 33.1 °F 26.1 °F 25.0 °F 72% 30.25 in 8.0 mi SSW 8.1 mph - 0.00 in Snow Light Snow
8:54 AM 34.0 °F 28.0 °F 25.0 °F 70% 30.24 in 10.0 mi SSE 6.9 mph - 0.00 in   Overcast
9:54 AM 36.0 °F 29.6 °F 23.0 °F 59% 30.20 in 10.0 mi SSE 8.1 mph - N/A   Overcast
10:54 AM 37.0 °F 29.3 °F 21.0 °F 52% 30.17 in 10.0 mi South 11.5 mph - N/A   Overcast
11:54 AM 37.9 °F 30.9 °F 21.9 °F 53% 30.15 in 10.0 mi SSW 10.4 mph - N/A   Overcast
12:54 PM 39.0 °F 32.3 °F 21.9 °F 50% 30.12 in 10.0 mi SSW 10.4 mph - N/A   Overcast
1:54 PM 39.9 °F 33.9 °F 23.0 °F 51% 30.12 in 10.0 mi SW 9.2 mph - N/A   Overcast
2:54 PM 39.9 °F 32.1 °F 23.0 °F 51% 30.11 in 10.0 mi SW 13.8 mph - N/A   Overcast
3:54 PM 39.9 °F 34.5 °F 24.1 °F 53% 30.09 in 10.0 mi South 8.1 mph - N/A   Overcast
4:54 PM 39.0 °F 33.4 °F 24.1 °F 55% 30.09 in 10.0 mi South 8.1 mph - N/A   Overcast
5:54 PM 39.0 °F 32.8 °F 24.1 °F 55% 30.09 in 10.0 mi South 9.2 mph - N/A   Overcast
6:54 PM 39.0 °F 34.0 °F 25.0 °F 57% 30.09 in 10.0 mi South 6.9 mph - N/A   Overcast
7:54 PM 39.0 °F 32.8 °F 26.1 °F 60% 30.07 in 10.0 mi SSW 9.2 mph - N/A   Overcast
8:54 PM 39.9 °F 32.9 °F 27.0 °F 60% 30.06 in 10.0 mi SSW 11.5 mph - N/A   Overcast
9:54 PM 39.9 °F 34.5 °F 27.0 °F 60% 30.04 in 10.0 mi South 8.1 mph - N/A   Overcast
10:54 PM 39.9 °F 35.1 °F 26.1 °F 58% 30.00 in 10.0 mi South 6.9 mph - N/A   Overcast
11:54 PM 39.9 °F 36.7 °F 25.0 °F 55% 29.98 in 10.0 mi SE 4.6 mph - N/A   Overcast